Regional Weather Roundup
Issued by NWS Boston, MA

Home | Current Version | Previous Version | Text Only | Print | Product List | Glossary On
Versions: 1 2 3 4 5 6 7 8 9 10 11 12 13 14 15 16 17 18 19 20 21 22 23 24 25 26 27 28 29 30 31 32 33 34 35 36 37 38 39 40 41 42 43 44 45 46 47 48 49 50
001
ASUS41 KBOX 310710
RWRBOX

REGIONAL WEATHER ROUNDUP
NATIONAL WEATHER SERVICE TAUNTON MA
300 AM EDT WED AUG 31 2016

NOTE:  "FAIR" INDICATES FEW OR NO CLOUDS BELOW 12,000 FEET WITH NO
SIGNIFICANT WEATHER AND/OR OBSTRUCTIONS TO VISIBILITY.

MAZALL-310800-
EASTERN MASSACHUSETTS

CITY           SKY/WX    TMP DP  RH WIND       PRES   REMARKS
BOSTON         CLEAR     69  64  84 SW12      30.01S
BEVERLY        CLEAR     64  62  93 SW3       30.01R
LAWRENCE       PTCLDY    65  59  81 S6        30.03R
BEDFORD        CLEAR     64  59  83 SW3       30.00S
BLUE HILL        N/A     65  62  90 SW13      30.03S
NORWOOD        CLEAR     67  63  87 SW6       30.02S
MARSHFIELD     CLEAR     68  66  94 SW5       30.02S
PLYMOUTH       CLEAR     66  64  93 S5        30.04S
TAUNTON        CLEAR     69  65  86 SW5       30.02F
NEW BEDFORD    CLEAR     63  60  90 CALM      30.03F
$$

MAZALL-310800-
CAPE COD AND THE ISLANDS

CITY           SKY/WX    TMP DP  RH WIND       PRES   REMARKS
FALMOUTH       CLEAR     68  64  88 SW8       30.05
HYANNIS        CLEAR     71  65  81 SW13      30.03S
CHATHAM        PTCLDY    70  65  84 SW9       30.05F
PROVINCETOWN   CLEAR     68  65  90 SW9       30.03F
NANTUCKET      CLEAR     68  63  84 S9        30.05F
MARTHAS VNYRD  CLEAR     69  66  90 SW6       30.05S
$$

MAZALL-310800-
CENTRAL AND WESTERN MASSACHUSETTS

CITY           SKY/WX    TMP DP  RH WIND       PRES   REMARKS
WORCESTER      CLEAR     62  59  90 SW6       30.05S
FITCHBURG      PTCLDY    62  55  77 CALM      30.03S
ORANGE         PTCLDY    56  54  93 CALM      30.04S
SPRINGFIELD    CLEAR     57  55  94 N2        30.02S
WESTFIELD      CLEAR     59  58  96 S3        30.03S
NORTH ADAMS    PTCLDY    56  54  93 CALM      30.04F
PITTSFIELD     PTCLDY    57  55  93 CALM      30.05S
$$

RIZALL-310800-
RHODE ISLAND

CITY           SKY/WX    TMP DP  RH WIND       PRES   REMARKS
PROVIDENCE     CLEAR     66  63  90 S5        30.04F
NEWPORT        CLEAR     70  67  90 CALM      30.04S
BLOCK ISLAND   CLOUDY    71  67  87 SW8       30.05S
SMITHFIELD     CLEAR     64  62  93 VRB3      30.04F
WESTERLY       PTCLDY    65  61  87 CALM      30.05S
$$

CTZALL-310800-
CONNECTICUT

CITY           SKY/WX    TMP DP  RH WIND       PRES   REMARKS
BRADLEY INTL   CLOUDY    64  59  83 CALM      30.04S
HARTFORD       PTCLDY    70  65  84 S5        30.03S
BRIDGEPORT     PTCLDY    76  70  82 SW8       30.04S
DANBURY        CLEAR     63  63 100 CALM      30.06S
GROTON         CLOUDY    69  65  86 CALM      30.04S
NEW HAVEN      MOCLDY    74  69  85 SW7       30.04S
CHESTER        FAIR      70  68  94 SW5       30.05S
MERIDEN        CLOUDY    66  62  87 CALM      30.04S
WILLIMANTIC    PTCLDY    62  61  96 CALM      30.05F
OXFORD           N/A     64  61  88 CALM      30.06S
$$

MEZ002-015-021-024-NHZ003-005-008-011-012-014-VTZ005-008-310800-
NORTHERN NEW ENGLAND

CITY           SKY/WX    TMP DP  RH WIND       PRES   REMARKS
PORTLAND ME    PTCLDY    60  57  89 CALM      29.99S
BANGOR ME      CLOUDY    62  54  74 CALM      29.97F
CONCORD NH     CLEAR     57  55  93 CALM      30.01S
MANCHESTER NH  PTCLDY    64  55  72 S3        29.99S
NASHUA NH      CLEAR     61  56  83 CALM      30.01F
PORTSMOUTH NH  PTCLDY    60  58  93 SW3       29.99S
JAFFREY NH     PTCLDY    59  55  87 CALM      30.04F
KEENE NH       CLEAR     55  55 100 CALM      30.03F
BURLINGTON VT  CLOUDY    71  57  61 S14       29.94F
MT. WASHINGTON FOG       48  48 100 W26         N/A  VSB 0
$$

NYZ052-076-310800-
EASTERN NEW YORK

CITY           SKY/WX    TMP DP  RH WIND       PRES   REMARKS
ALBANY         MOCLDY    63  58  83 CALM      30.01F
NEW YORK CITY  CLOUDY    77  71  82 S6        30.03S
$$

ANZALL-310800-
MARINE OBSERVATIONS

STATION/POSITION TIME  TEMP    WIND        PRES    VSBY  WAVE
                       AIR SEA DIR/SP/G                  HT/PER
                 (UTC) (F)     (DEG/KT/KT) (MB)    (MI)  (FT/S)
BOSTON BUOY      0650   68 68  220/ 14/ 16 1016.1R         3/11
BUZZARDS BAY     0600   71     220/ 12/ 13 1017.8F
NANTUCKET SOUND  0650   71 72  220/ 12/ 14 1017.2R         1/ 3
MASS BAY-STELLWA 0604   68 66  230/ 14/ 16 1015.6F  1 7/8  3/ 9
ISLE OF SHOALS   0600   66     250/  7/  7 1015.5F
S OF BLOCK IS    0625      75                N/A           4/11
$$

......................KEY.........................
  SKY/WX - SKY CONDITION/PRESENT WEATHER
  TMP    - TEMPERATURE IN FAHRENHEIT
  DWPT   - DEWPOINT IN FAHRENHEIT
  RH     - RELATIVE HUMIDITY IN PERCENT
  WIND   - DIRECTION AND SPEED IN MPH
  PRES   - MEAN SEA LEVEL PRESSURE IN INCHES OF HG
  WCI    - WIND CHILL INDEX
  VSB    - VISIBILITY IN MILES
  HX     - HEAT INDEX
  TC     - TEMPERATURE IN CELSIUS
  VRB    - VARIABLE WIND DIRECTION
  N/A    - NOT AVAILABLE




USA.gov is the U.S. government's official web portal to all federal, state and local government web resources and services.